Погода в Братске

Погода в Братске : погода сейчас, прогноз погоды и архив. Всё, что Вы хотите узнать о погоде в Братске!

Поиск расширенной информации на нашем сайте:

Другие новости

Новости СМИ2

Главная страница сайта

Новости сайта

02.10.2013

Напоминаем, что на нашем новом сайте вы можете получить высокодетализированные прогнозы погоды по пунктам России, СНГ и мира (включающие важные для авиации метеовеличины, такие как направление и скорость ветра, видимость, явления погоды, количество и форма облачности, нижняя и верхняя граница облачности), а также ознакомиться с разнообразными материалами по авиационной метеорологии и подборкой полезных ссылок на эту тему.

Сайт Метеоцентр.Азия посвящён разработке технологий оптимизации авиаметеорологического обслуживания, включая проектирование и перспективное создание нескольких автоматизированных авиаметеорологических систем:
- система выпуска высокодетальных прогностических карт явлений погоды для нижнего воздушного пространства по России и ближнему зарубежью;
- система верификации прогнозов TAF (выпускаемых синоптиками официальных АМСГ РФ и ближнего зарубежья) и AUTOTAF (выпускаемых сайтом Метеоцентр.Азия) - выявление ошибок, онлайн-сопоставление с фактической погодой METAR, автоматическое внесение коррективов в прогнозы при резком отклонении фактической погоды от прогноза, подсчёт оправдываемости прогнозов по элементам и в целом;
- система обработки, анализа и отображения авиаметеорологической информации для применения провайдерами метеорологической информации.


Погода в Братске - сегодня

Время (UTC), дата Ветер
(°,м/с) 
Видим.   Явления Облачность Т
(°С)
Тd
(°С)
f(%) Тe
(°С)
Pmin
(гПа)
dP
(гПа)
Po
(мм)
O2
(г/м3)
Тmin Tmax R s Состояние
почвы
21 26.03.17 тихо ()   н/о    8/5 1000 м средняя 
[Sc|Ac trans]
-2.8 -5.1 84 -3  1023.4  728  297           
00 27.03.17 тихо ()   20000 м    9/0 средняя, верхняя 
[Ac trans|Ci sp]
-2.2 -4.4 85 -2  1023.4  728  296  -3.3      34  мокрый или
старый снег
50-90% 
03 27.03.17 200 (Ю) 20000 м    10/4 1000 м средняя, верхняя 
[Sc|Ac trans|Ci fib]
+1.8 -2.9 71 +1  1022.7  728  292           
06 27.03.17 100 (В) 20000 м    6/1 1000 м средняя, верхняя 
[Sc|Ac trans|Ci fib]
+3.3 -4.5 57 +3  1020.7  -1.5  727  290           
09 27.03.17 090 (В) 20000 м    3/0 верхняя 
[Ci]
+4 -6.3 47 +3  1019.1  -1.5  726  289           
12 27.03.17 350 (С) 20000 м    3/0 средняя 
[Ac trans]
+2 -8.2 47 +3  1019.9  0.4  727  291    +4.9       
15 27.03.17 040 (СВ) н/о    ясно 
-0.1 -8.6 53 -1  1021.1  0.8  727  294           
18 27.03.17 050 (СВ) н/о    ясно 
-1 -8.6 56 -2  1022.2  0.9  728  295           
21 27.03.17 340 (С) н/о    ясно 
-3.2 -7.9 70 -3  1023.3  0.6  728  298           
00 28.03.17 260 (З) 20000 м    10/0 верхняя 
[Cc]
-5.6 -6.3 95 -5  1025.2  1.5  729  301  -6.3      30  мокрый или
старый снег
50-90% 
03 28.03.17 080 (В) 20000 м    10/0 верхняя 
[Ci fib]
-0.2 -4.2 74 1025.4  730  295           
06 28.03.17 200 (Ю) 20000 м    8/0 средняя, верхняя 
[Ac lent|Ci fib]
+4.9 -9.5 34 +6  1024.5  0.1  730  290           
09 28.03.17 130 (ЮВ) 20000 м    10/0 верхняя 
[Ci fib]
+4.9 -9 36 +6  1024.4  -0.1  730  290           
12 28.03.17 210 (ЮЗ) 20000 м    10/3 1000 м средняя, верхняя 
[Sc|Ac trans|Ci fib]
+1.5 -7.1 53 +1  1025.2  0.2  730  293    +5.6       
15 28.03.17 240 (ЮЗ) н/о    6/0 средняя, верхняя 
[Ac trans|Ci fib]
-1.7 -7.3 66 -1  1026.5  0.8  731  297           
18 28.03.17 тихо ()   н/о    9/9 1000 м 
[Sc]
-0.2 -4.5 73 -0  1026.3  -0.1  731  295           
21 28.03.17 230 (ЮЗ) н/о    10/10 1000 м 
[Sc]
-1.1 -4.6 77 -1  1026.7  0.3  731  296           
00 29.03.17 260 (З) 20000 м    10/10 1000 м 
[Sc]
+0.3 -3.7 74 +1  1027.2  0.7  732  295  -2.8      27  мокрый или
старый снег
50-90% 
03 29.03.17 200 (Ю) 20000 м    10/0 средняя, верхняя 
[Ac trans|Ci fib]
+3.7 -2.2 65 +5  1026.9  0.3  732  291           
06 29.03.17 160 (Ю) 20000 м    10/3 1500 м средняя, верхняя 
[Sc diur, vesp|Ac trans|Ci fib]
+4.8 -1.2 65 +3  1026.1  -0.6  731  290           
09 29.03.17 160 (Ю) 20000 м    6/1 1500 м верхняя 
[Sc|Ci fib]
+4.1 -1.1 69 +2  1025  -1  731  290           
12 29.03.17 210 (ЮЗ) 20000 м    3/0 верхняя 
[Ci fib]
+3.9 -3.3 59 +3  1024.6  -0.6  730  290    +5.8       
15 29.03.17 250 (З) н/о    ясно 
+2.4 -3.9 63 +3  1024.1  -0.6  730  292           
18 29.03.17 190 (Ю) н/о    ясно 
+0.5 -3.8 73 1023.6  -0.9  729  294           
21 29.03.17 120 (ЮВ) н/о    ясно 
+0.5 -4.5 69 +1  1022.7  -0.9  728  293           
Время (UTC), дата Ветер
(°,м/с) 
Видим.   Явления Облачность Т
(°С)
Тd
(°С)
f(%) Тe
(°С)
Pmin
(гПа)
dP
(гПа)
Po
(мм)
O2
(г/м3)
Тmin Tmax R s Состояние
почвы

Для получения пояснительной информации подведите курсор к названию столбца.

ПОГОДА в Братске - архив

Всё, что Вы хотите узнать о погоде в Братске - удобно и подробно!

Выберите нужную дату (начиная с 1 января 2015* года) и нажмите кнопку "Найти".
Будут отображены архивные сводки погоды по пункту Братск, начиная с указанной даты.


Отображать данные в формате CSV (для использования в таблицах Excel)


Внимание! Наш архив погоды предназначен исключительно для личного некоммерческого использования в познавательных целях. Если Вам необходимы официальные справки о состоянии погоды (для производственных, юридических, коммерческих и т.п. целей), обращайтесь в органы Росгидромета.

*Примечание: данная дата относится к архиву по метеостанциям СССР (Россия, СНГ, Балтия).
Архив по метеостанциям Зарубежной Европы и Азии (кроме Китая) хранится 10 дней, по другим регионам земного шара (Китай, Африка, Америка, Австралия, Океания) - 1 день.

Братск - район местоположения метеостанции


Название, широта, долгота, высота метеостанции:
Братск (город) 56.3°ш. 101.8°д. 416 м над ур. моря [Российская Федерация]

Дополнительная информация

В oтличие oт бoльшинства пoгoдных сайтoв мы публикуем пoдрoбную метеoинфoрмацию в детальнoм прoфессиoнальнoм фoрмате.

Характеристики температуры и влажнoсти вoздуха измеряются на высoте 2 м в тени вдали oт зданий и деревьев.
Скoрoсть ветра измеряется на высoте 10 м (на урoвне рoста челoвека скoрoсть ветра ниже в 1.5-2 раза). Если метеoстанция нахoдится в гoрoде или в лесу, тo скoрoсть ветра занижена на 2-4 м/с пo сравнению с oткрытым местoм. Скoрoсть ветра над акватoриями крупных рек и oзёр, а также на вершинах хoлмoв на 2-5 м/с выше, чем в oбычных услoвиях.
Атмoсфернoе давление в разных тoчках местнoсти мoжет значительнo oтличаться oт давления на метеoстанции, в зависимoсти oт услoвий рельефа (при пoдъёме на 10 м давление пoнижается примернo на 1 мм рт.ст.).